Time,TemperatureF,DewpointF,PressureIn,WindDirection,WindDirectionDegrees,WindSpeedMPH,WindSpeedGustMPH,Humidity,HourlyPrecipIn,Conditions,Clouds,dailyrainin,SoftwareType,DateUTC
2013-10-27 00:00:00,36.5,29.7,30.01,WSW,242,2.0,5.0,76,0.00,,,0.00,VWS V14.01,2013-10-27 05:00:00,
2013-10-27 00:02:00,36.5,29.7,30.01,WSW,242,0.0,2.0,76,0.00,,,0.00,VWS V14.01,2013-10-27 05:02:00,
2013-10-27 00:07:00,36.4,29.6,30.01,WSW,255,1.0,3.0,76,0.00,,,0.00,VWS V14.01,2013-10-27 05:07:00,
2013-10-27 00:12:00,36.3,29.5,30.00,SW,221,3.0,4.0,76,0.00,,,0.00,VWS V14.01,2013-10-27 05:12:00,
2013-10-27 00:17:00,36.1,29.3,30.00,SW,215,2.0,4.0,76,0.00,,,0.00,VWS V14.01,2013-10-27 05:17:00,
2013-10-27 00:22:00,36.0,29.2,30.00,SW,215,2.0,4.0,76,0.00,,,0.00,VWS V14.01,2013-10-27 05:22:00,
2013-10-27 00:27:00,35.7,29.2,30.00,WSW,253,1.0,4.0,77,0.00,,,0.00,VWS V14.01,2013-10-27 05:27:00,
2013-10-27 00:30:00,35.5,29.3,30.00,WSW,253,0.0,4.0,78,0.00,,,0.00,VWS V14.01,2013-10-27 05:30:00,
2013-10-27 00:32:00,35.4,29.2,30.00,WSW,253,1.0,1.0,78,0.00,,,0.00,VWS V14.01,2013-10-27 05:32:00,
2013-10-27 00:37:00,35.2,29.0,30.00,WSW,253,2.0,2.0,78,0.00,,,0.00,VWS V14.01,2013-10-27 05:37:00,
2013-10-27 00:42:00,35.0,28.9,29.99,WSW,252,3.0,3.0,78,0.00,,,0.00,VWS V14.01,2013-10-27 05:42:00,
2013-10-27 00:47:00,34.8,29.0,29.99,SW,219,2.0,4.0,79,0.00,,,0.00,VWS V14.01,2013-10-27 05:47:00,
2013-10-27 01:00:00,34.1,28.6,29.99,SW,219,3.0,4.0,80,0.00,,,0.00,VWS V14.01,2013-10-27 06:00:00,
2013-10-27 01:30:00,32.8,27.9,29.97,SW,219,0.0,4.0,82,0.00,,,0.00,VWS V14.01,2013-10-27 06:30:00,
2013-10-27 02:00:00,31.7,27.7,29.96,SW,219,0.0,1.0,85,0.00,,,0.00,VWS V14.01,2013-10-27 07:00:00,
2013-10-27 02:30:00,31.1,27.4,29.96,SW,219,0.0,2.0,86,0.00,,,0.00,VWS V14.01,2013-10-27 07:30:00,
2013-10-27 03:00:00,31.2,27.2,29.95,SW,219,1.0,1.0,85,0.00,,,0.00,VWS V14.01,2013-10-27 08:00:00,
2013-10-27 03:30:00,30.5,27.1,29.94,SW,225,1.0,3.0,87,0.00,,,0.00,VWS V14.01,2013-10-27 08:30:00,
2013-10-27 04:00:00,30.2,27.1,29.93,SW,224,2.0,3.0,88,0.00,,,0.00,VWS V14.01,2013-10-27 09:00:00,
2013-10-27 04:30:00,30.2,27.1,29.92,SSW,205,1.0,5.0,88,0.00,,,0.00,VWS V14.01,2013-10-27 09:30:00,
2013-10-27 05:00:00,30.0,27.2,29.91,SW,221,2.0,5.0,89,0.00,,,0.00,VWS V14.01,2013-10-27 10:00:00,
2013-10-27 05:30:00,29.8,27.0,29.90,South,190,1.0,6.0,89,0.00,,,0.00,VWS V14.01,2013-10-27 10:30:00,
2013-10-27 06:00:00,29.7,26.9,29.88,South,177,3.0,5.0,89,0.00,,,0.00,VWS V14.01,2013-10-27 11:00:00,
2013-10-27 06:25:00,30.1,27.3,29.87,SW,219,2.0,8.0,89,0.00,,,0.00,VWS V14.01,2013-10-27 11:25:00,
2013-10-27 06:30:00,29.9,26.8,29.87,SSW,202,2.0,8.0,88,0.00,,,0.00,VWS V14.01,2013-10-27 11:30:00,
2013-10-27 06:35:00,29.8,27.0,29.87,SW,223,3.0,5.0,89,0.00,,,0.00,VWS V14.01,2013-10-27 11:35:00,
2013-10-27 06:40:00,30.1,27.3,29.87,SW,227,3.0,5.0,89,0.00,,,0.00,VWS V14.01,2013-10-27 11:40:00,
2013-10-27 06:45:00,30.1,27.0,29.86,SSW,198,1.0,5.0,88,0.00,,,0.00,VWS V14.01,2013-10-27 11:45:00,
2013-10-27 06:50:00,30.2,27.1,29.86,SSW,197,4.0,5.0,88,0.00,,,0.00,VWS V14.01,2013-10-27 11:50:00,
2013-10-27 06:55:00,30.3,27.2,29.86,SSW,210,2.0,7.0,88,0.00,,,0.00,VWS V14.01,2013-10-27 11:55:00,
2013-10-27 07:00:00,30.3,27.2,29.85,South,191,3.0,7.0,88,0.00,,,0.00,VWS V14.01,2013-10-27 12:00:00,
2013-10-27 07:05:00,30.3,27.2,29.85,SW,225,3.0,5.0,88,0.00,,,0.00,VWS V14.01,2013-10-27 12:05:00,
2013-10-27 07:10:00,30.2,27.1,29.85,SSW,197,1.0,8.0,88,0.00,,,0.00,VWS V14.01,2013-10-27 12:10:00,
2013-10-27 07:15:00,30.1,27.0,29.85,SSW,213,0.0,8.0,88,0.00,,,0.00,VWS V14.01,2013-10-27 12:15:00,
2013-10-27 07:20:00,30.1,27.0,29.84,South,191,2.0,8.0,88,0.00,,,0.00,VWS V14.01,2013-10-27 12:20:00,
2013-10-27 07:25:00,30.2,27.4,29.84,SSW,208,1.0,8.0,89,0.00,,,0.00,VWS V14.01,2013-10-27 12:25:00,
2013-10-27 07:30:00,30.4,27.3,29.84,SW,220,5.0,8.0,88,0.00,,,0.00,VWS V14.01,2013-10-27 12:30:00,
2013-10-27 07:31:00,30.4,27.3,29.84,SW,230,2.0,8.0,88,0.00,,,0.00,VWS V14.01,2013-10-27 12:31:00,
2013-10-27 07:36:00,30.6,27.5,29.83,SSE,150,2.0,6.0,88,0.00,,,0.00,VWS V14.01,2013-10-27 12:36:00,
2013-10-27 07:41:00,31.0,27.9,29.82,South,190,4.0,7.0,88,0.00,,,0.00,VWS V14.01,2013-10-27 12:41:00,
2013-10-27 07:46:00,31.3,28.2,29.82,SSE,158,5.0,7.0,88,0.00,,,0.00,VWS V14.01,2013-10-27 12:46:00,
2013-10-27 07:51:00,31.7,28.3,29.82,SSW,208,2.0,7.0,87,0.00,,,0.00,VWS V14.01,2013-10-27 12:51:00,
2013-10-27 07:56:00,31.9,28.2,29.82,SE,146,6.0,8.0,86,0.00,,,0.00,VWS V14.01,2013-10-27 12:56:00,
2013-10-27 08:00:00,32.2,28.5,29.82,SSW,197,4.0,8.0,86,0.00,,,0.00,VWS V14.01,2013-10-27 13:00:00,
2013-10-27 08:01:00,32.2,28.5,29.82,SSW,203,4.0,8.0,86,0.00,,,0.00,VWS V14.01,2013-10-27 13:01:00,
2013-10-27 08:06:00,32.5,28.5,29.83,WSW,242,3.0,7.0,85,0.00,,,0.00,VWS V14.01,2013-10-27 13:06:00,
2013-10-27 08:11:00,32.6,28.6,29.83,SW,228,5.0,8.0,85,0.00,,,0.00,VWS V14.01,2013-10-27 13:11:00,
2013-10-27 08:16:00,32.5,28.5,29.83,SW,232,4.0,8.0,85,0.00,,,0.00,VWS V14.01,2013-10-27 13:16:00,
2013-10-27 08:21:00,32.4,28.7,29.82,SSW,192,3.0,8.0,86,0.00,,,0.00,VWS V14.01,2013-10-27 13:21:00,
2013-10-27 08:26:00,32.6,28.6,29.82,SW,222,6.0,8.0,85,0.00,,,0.00,VWS V14.01,2013-10-27 13:26:00,
2013-10-27 08:30:00,32.8,28.8,29.83,SW,230,3.0,14.0,85,0.00,,,0.00,VWS V14.01,2013-10-27 13:30:00,
2013-10-27 08:31:00,32.8,28.8,29.83,SW,217,7.0,14.0,85,0.00,,,0.00,VWS V14.01,2013-10-27 13:31:00,
2013-10-27 08:35:00,33.0,29.0,29.82,South,186,4.0,8.0,85,0.00,,,0.00,VWS V14.01,2013-10-27 13:35:00,
2013-10-27 08:40:00,33.2,29.2,29.82,SSW,192,5.0,8.0,85,0.00,,,0.00,VWS V14.01,2013-10-27 13:40:00,
2013-10-27 08:45:00,33.3,29.3,29.82,South,191,3.0,11.0,85,0.00,,,0.00,VWS V14.01,2013-10-27 13:45:00,
2013-10-27 08:50:00,33.4,29.1,29.82,South,186,4.0,11.0,84,0.00,,,0.00,VWS V14.01,2013-10-27 13:50:00,
2013-10-27 08:55:00,33.5,29.5,29.82,WSW,252,9.0,11.0,85,0.00,,,0.00,VWS V14.01,2013-10-27 13:55:00,
2013-10-27 09:00:00,33.6,29.6,29.82,SW,219,4.0,11.0,85,0.00,,,0.00,VWS V14.01,2013-10-27 14:00:00,
2013-10-27 09:01:00,33.6,29.3,29.82,SW,222,2.0,11.0,84,0.00,,,0.00,VWS V14.01,2013-10-27 14:01:00,
2013-10-27 09:06:00,33.8,29.5,29.82,SW,225,5.0,11.0,84,0.00,,,0.00,VWS V14.01,2013-10-27 14:06:00,
2013-10-27 09:11:00,33.9,29.6,29.82,South,185,4.0,11.0,84,0.00,,,0.00,VWS V14.01,2013-10-27 14:11:00,
2013-10-27 09:16:00,33.8,29.5,29.82,SW,219,0.0,11.0,84,0.00,,,0.00,VWS V14.01,2013-10-27 14:16:00,
2013-10-27 09:20:00,33.8,29.5,29.82,SW,221,3.0,11.0,84,0.00,,,0.00,VWS V14.01,2013-10-27 14:20:00,
2013-10-27 09:25:00,34.4,30.1,29.82,SSW,203,4.0,11.0,84,0.00,,,0.00,VWS V14.01,2013-10-27 14:25:00,
2013-10-27 09:30:00,35.2,30.3,29.82,WSW,242,10.0,11.0,82,0.00,,,0.00,VWS V14.01,2013-10-27 14:30:00,
2013-10-27 09:35:00,35.8,30.5,29.82,SW,233,5.0,8.0,81,0.00,,,0.00,VWS V14.01,2013-10-27 14:35:00,
2013-10-27 09:40:00,36.3,31.0,29.82,SW,225,10.0,12.0,81,0.00,,,0.00,VWS V14.01,2013-10-27 14:40:00,
2013-10-27 10:00:00,38.5,31.6,29.82,SW,215,5.0,14.0,76,0.00,,,0.00,VWS V14.01,2013-10-27 15:00:00,
2013-10-27 10:25:00,39.6,31.3,29.82,SW,231,6.0,14.0,72,0.00,,,0.00,VWS V14.01,2013-10-27 15:25:00,
2013-10-27 10:30:00,39.6,31.3,29.82,SW,233,6.0,14.0,72,0.00,,,0.00,VWS V14.01,2013-10-27 15:30:00,
2013-10-27 10:35:00,39.9,32.0,29.82,SW,236,5.0,10.0,73,0.00,,,0.00,VWS V14.01,2013-10-27 15:35:00,
2013-10-27 10:40:00,40.3,32.0,29.82,WSW,247,1.0,10.0,72,0.00,,,0.00,VWS V14.01,2013-10-27 15:40:00,
2013-10-27 10:41:00,40.3,32.0,29.82,West,266,3.0,10.0,72,0.00,,,0.00,VWS V14.01,2013-10-27 15:41:00,
2013-10-27 11:00:00,40.6,32.3,29.82,West,265,3.0,12.0,72,0.00,,,0.00,VWS V14.01,2013-10-27 16:00:00,
2013-10-27 11:30:00,43.6,32.6,29.83,WSW,247,8.0,11.0,65,0.00,,,0.00,VWS V14.01,2013-10-27 16:30:00,
2013-10-27 12:00:00,43.1,32.2,29.83,WNW,284,3.0,11.0,65,0.00,,,0.00,VWS V14.01,2013-10-27 17:00:00,
2013-10-27 12:30:00,45.1,33.7,29.84,WNW,293,3.0,8.0,64,0.00,,,0.00,VWS V14.01,2013-10-27 17:30:00,
2013-10-27 13:00:00,46.4,34.1,29.84,West,273,2.0,8.0,62,0.00,,,0.00,VWS V14.01,2013-10-27 18:00:00,
2013-10-27 13:30:00,48.5,34.0,29.83,WNW,303,3.0,11.0,57,0.00,,,0.00,VWS V14.01,2013-10-27 18:30:00,
2013-10-27 14:00:00,49.9,33.9,29.83,WNW,301,4.0,13.0,54,0.00,,,0.00,VWS V14.01,2013-10-27 19:00:00,
2013-10-27 14:30:00,50.1,35.0,29.84,NW,317,4.0,11.0,56,0.00,,,0.00,VWS V14.01,2013-10-27 19:30:00,
2013-10-27 15:00:00,51.2,35.6,29.85,NW,325,11.0,14.0,55,0.00,,,0.00,VWS V14.01,2013-10-27 20:00:00,
2013-10-27 15:30:00,50.2,35.1,29.86,NNW,333,3.0,13.0,56,0.00,,,0.00,VWS V14.01,2013-10-27 20:30:00,
2013-10-27 16:00:00,52.5,34.4,29.88,North,9,7.0,15.0,50,0.00,,,0.00,VWS V14.01,2013-10-27 21:00:00,
2013-10-27 16:30:00,51.7,34.2,29.90,North,9,9.0,15.0,51,0.00,,,0.00,VWS V14.01,2013-10-27 21:30:00,
2013-10-27 16:56:00,51.6,34.6,29.92,NNE,22,6.0,20.0,52,0.00,,,0.00,VWS V14.01,2013-10-27 21:56:00,
2013-10-27 17:00:00,51.0,34.0,29.92,NNE,13,15.0,20.0,52,0.00,,,0.00,VWS V14.01,2013-10-27 22:00:00,
2013-10-27 17:01:00,51.0,34.0,29.92,NNE,13,15.0,20.0,52,0.00,,,0.00,VWS V14.01,2013-10-27 22:01:00,
2013-10-27 17:06:00,50.3,33.4,29.92,NNE,13,9.0,17.0,52,0.00,,,0.00,VWS V14.01,2013-10-27 22:06:00,
2013-10-27 17:11:00,49.8,32.4,29.92,NNW,342,10.0,17.0,51,0.00,,,0.00,VWS V14.01,2013-10-27 22:11:00,
2013-10-27 17:30:00,48.5,33.1,29.94,North,360,10.0,17.0,55,0.00,,,0.00,VWS V14.01,2013-10-27 22:30:00,
2013-10-27 18:00:00,47.6,32.2,29.97,ENE,63,6.0,19.0,55,0.00,,,0.00,VWS V14.01,2013-10-27 23:00:00,
2013-10-27 18:30:00,45.5,31.6,30.00,NNW,339,9.0,19.0,58,0.00,,,0.00,VWS V14.01,2013-10-27 23:30:00,
2013-10-27 19:00:00,43.3,31.2,30.03,North,360,17.0,22.0,62,0.00,,,0.00,VWS V14.01,2013-10-28 00:00:00,
2013-10-27 19:05:00,43.2,31.1,30.03,North,10,10.0,22.0,62,0.00,,,0.00,VWS V14.01,2013-10-28 00:05:00,
2013-10-27 19:10:00,43.0,30.9,30.04,NNE,14,11.0,22.0,62,0.00,,,0.00,VWS V14.01,2013-10-28 00:10:00,
2013-10-27 19:15:00,42.9,30.8,30.04,North,350,13.0,22.0,62,0.00,,,0.00,VWS V14.01,2013-10-28 00:15:00,
2013-10-27 19:20:00,42.8,30.7,30.04,NNE,16,7.0,22.0,62,0.00,,,0.00,VWS V14.01,2013-10-28 00:20:00,
2013-10-27 19:25:00,42.6,30.9,30.04,NNE,17,7.0,22.0,63,0.00,,,0.00,VWS V14.01,2013-10-28 00:25:00,
2013-10-27 19:30:00,42.5,30.8,30.05,NNE,28,9.0,22.0,63,0.00,,,0.00,VWS V14.01,2013-10-28 00:30:00,
2013-10-27 19:35:00,42.4,30.7,30.05,North,10,15.0,15.0,63,0.00,,,0.00,VWS V14.01,2013-10-28 00:35:00,
2013-10-27 19:40:00,42.4,30.7,30.06,NNE,26,9.0,16.0,63,0.00,,,0.00,VWS V14.01,2013-10-28 00:40:00,
2013-10-27 20:00:00,42.1,30.8,30.07,NNE,17,9.0,16.0,64,0.00,,,0.00,VWS V14.01,2013-10-28 01:00:00,
2013-10-27 20:30:00,41.7,30.4,30.09,North,355,11.0,17.0,64,0.00,,,0.00,VWS V14.01,2013-10-28 01:30:00,
2013-10-27 21:00:00,39.9,29.9,30.11,NNE,24,5.0,13.0,67,0.00,,,0.00,VWS V14.01,2013-10-28 02:00:00,
2013-10-27 21:30:00,38.0,29.5,30.13,NNE,14,3.0,10.0,71,0.00,,,0.00,VWS V14.01,2013-10-28 02:30:00,
2013-10-27 22:00:00,37.1,29.6,30.15,NNE,28,3.0,11.0,74,0.00,,,0.00,VWS V14.01,2013-10-28 03:00:00,
2013-10-27 22:30:00,35.9,29.1,30.17,North,5,5.0,8.0,76,0.00,,,0.00,VWS V14.01,2013-10-28 03:30:00,
2013-10-27 23:00:00,36.4,30.2,30.19,North,11,8.0,12.0,78,0.00,,,0.00,VWS V14.01,2013-10-28 04:00:00,
2013-10-27 23:30:00,36.8,29.3,30.20,NE,40,9.0,18.0,74,0.00,,,0.00,VWS V14.01,2013-10-28 04:30:00,
2013-10-27 23:46:00,36.5,28.7,30.21,NNE,32,9.0,18.0,73,0.00,,,0.00,VWS V14.01,2013-10-28 04:46:00,
2013-10-27 23:47:00,36.5,28.7,30.22,NNE,24,9.0,18.0,73,0.00,,,0.00,VWS V14.01,2013-10-28 04:47:00,
2013-10-27 23:52:00,36.4,28.6,30.22,NNE,30,10.0,18.0,73,0.00,,,0.00,VWS V14.01,2013-10-28 04:52:00,